| time (UTC) | temp C | wind direction | speed KPH | gust KPH | rain 1hr cm | rain 24hr cm | rain mn cm | humidity % | barometer mb |
| 20260505095620 | 9 | 111 | 0.0 | 0.0 | 0.00 | 1.14 | 1.14 | 88 | 1010.4 |
| 20260505095117 | 9 | 111 | 0.0 | 0.0 | 0.00 | 1.14 | 1.14 | 88 | 1010.3 |
| 20260505094614 | 9 | 103 | 0.0 | 3.2 | 0.00 | 1.14 | 1.14 | 87 | 1010.3 |
| 20260505094110 | 9 | 104 | 0.0 | 3.2 | 0.00 | 1.14 | 1.14 | 87 | 1010.1 |
| 20260505093606 | 9 | 102 | 0.0 | 1.6 | 0.00 | 1.14 | 1.14 | 88 | 1010.2 |
| 20260505093104 | 8 | 97 | 0.0 | 0.0 | 0.00 | 1.14 | 1.14 | 89 | 1010.3 |
| 20260505092601 | 8 | 98 | 0.0 | 0.0 | 0.00 | 1.14 | 1.14 | 90 | 1010.2 |
| 20260505092100 | 8 | 95 | 0.0 | 1.6 | 0.00 | 1.14 | 1.14 | 89 | 1010.0 |
| 20260505091556 | 9 | 75 | 3.2 | 3.2 | 0.00 | 1.14 | 1.14 | 89 | 1009.9 |
| 20260505091054 | 8 | 74 | 0.0 | 3.2 | 0.00 | 1.14 | 1.14 | 89 | 1009.7 |
| 20260505090552 | 8 | 108 | 0.0 | 4.8 | 0.00 | 1.14 | 1.14 | 94 | 1009.4 |
| 20260505090050 | 8 | 84 | 1.6 | 3.2 | 0.00 | 1.14 | 1.14 | 99 | 1009.1 |
| 20260505085547 | 7 | 112 | 4.8 | 9.7 | 0.00 | 1.14 | 1.14 | 99 | 1009.0 |
| 20260505085045 | 7 | 36 | 0.0 | 9.7 | 0.00 | 1.14 | 1.14 | 99 | 1008.9 |
| 20260505084543 | 7 | 139 | 1.6 | 4.8 | 0.00 | 1.14 | 1.14 | 99 | 1008.7 |
| 20260505084041 | 7 | 53 | 3.2 | 6.4 | 0.00 | 1.14 | 1.14 | 99 | 1008.1 |
| 20260505083538 | 8 | 126 | 1.6 | 1.6 | 0.00 | 1.14 | 1.14 | 99 | 1008.0 |
| 20260505083034 | 8 | 47 | 3.2 | 6.4 | 0.00 | 1.14 | 1.14 | 99 | 1008.0 |
| 20260505082530 | 8 | 38 | 4.8 | 11.3 | 0.00 | 1.14 | 1.14 | 99 | 1007.9 |
| 20260505082027 | 8 | 181 | 0.0 | 3.2 | 0.00 | 1.14 | 1.14 | 99 | 1008.0 |
| 20260505081523 | 8 | 38 | 1.6 | 6.4 | 0.00 | 1.14 | 1.14 | 99 | 1007.9 |
| 20260505081021 | 8 | 55 | 3.2 | 6.4 | 0.30 | 1.14 | 1.14 | 99 | 1007.4 |
| 20260505080517 | 8 | 53 | 1.6 | 20.9 | 0.71 | 1.14 | 1.14 | 98 | 1006.7 |
| 20260505080014 | 8 | 121 | 1.6 | 14.5 | 0.71 | 1.09 | 1.09 | 96 | 1006.5 |
| 20260505075509 | 9 | 129 | 6.4 | 16.1 | 0.66 | 1.02 | 1.02 | 92 | 1008.8 |
| 20260505075006 | 9 | 71 | 3.2 | 6.4 | 0.61 | 0.94 | 0.94 | 92 | 1009.5 |
| 20260505074504 | 9 | 46 | 3.2 | 3.2 | 0.79 | 0.89 | 0.89 | 93 | 1009.8 |
| 20260505074001 | 10 | 146 | 4.8 | 6.4 | 0.71 | 0.81 | 0.81 | 91 | 1009.7 |
| 20260505073458 | 10 | 99 | 0.0 | 0.0 | 0.79 | 0.74 | 0.74 | 93 | 1010.4 |
| 20260505072956 | 10 | 81 | 0.0 | 1.6 | 0.79 | 0.69 | 0.69 | 93 | 1010.7 |
| 20260505072451 | 10 | 79 | 0.0 | 1.6 | 0.61 | 0.61 | 0.61 | 91 | 1010.5 |
| 20260505071948 | 10 | 133 | 1.6 | 4.8 | 0.30 | 0.53 | 0.53 | 89 | 1010.4 |
| 20260505071444 | 11 | 127 | 0.0 | 4.8 | 0.48 | 0.51 | 0.51 | 88 | 1010.9 |
| 20260505070942 | 11 | 0 | 4.8 | 6.4 | 0.30 | 0.48 | 0.48 | 88 | 1010.6 |
| 20260505070439 | 11 | 105 | 3.2 | 4.8 | 0.13 | 0.43 | 0.43 | 89 | 1009.6 |
| 20260505065934 | 11 | 125 | 0.0 | 1.6 | 0.18 | 0.41 | 0.41 | 91 | 1008.8 |
| 20260505065431 | 11 | 120 | 0.0 | 1.6 | 0.18 | 0.41 | 0.41 | 91 | 1009.2 |
| 20260505064927 | 12 | 103 | 0.0 | 0.0 | 0.00 | 0.38 | 0.38 | 90 | 1008.9 |
| 20260505064425 | 12 | 55 | 1.6 | 1.6 | 0.13 | 0.38 | 0.38 | 88 | 1008.8 |
| 20260505063923 | 12 | 108 | 0.0 | 1.6 | 0.30 | 0.38 | 0.38 | 88 | 1008.6 |
| 20260505063419 | 13 | 119 | 0.0 | 0.0 | 0.18 | 0.36 | 0.36 | 88 | 1008.3 |
| 20260505062916 | 13 | 116 | 0.0 | 3.2 | 0.00 | 0.33 | 0.33 | 85 | 1008.2 |
| 20260505062413 | 13 | 154 | 3.2 | 6.4 | 0.00 | 0.33 | 0.33 | 86 | 1007.9 |
| 20260505061909 | 13 | 124 | 0.0 | 0.0 | 0.18 | 0.33 | 0.33 | 94 | 1008.0 |
| 20260505061408 | 13 | 130 | 0.0 | 1.6 | 0.18 | 0.33 | 0.33 | 93 | 1007.7 |
| 20260505060905 | 13 | 135 | 0.0 | 0.0 | 0.30 | 0.30 | 0.30 | 91 | 1007.9 |
| 20260505060402 | 13 | 122 | 0.0 | 0.0 | 0.61 | 0.30 | 0.30 | 90 | 1007.6 |
| 20260505055858 | 14 | 117 | 0.0 | 0.0 | 0.48 | 0.23 | 0.23 | 86 | 1007.4 |
| 20260505055354 | 14 | 126 | 0.0 | 1.6 | 0.71 | 0.20 | 0.20 | 83 | 1007.1 |
| 20260505054851 | 15 | 78 | 0.0 | 1.6 | 0.89 | 0.15 | 0.15 | 83 | 1006.6 |
| 20260505054348 | 16 | 120 | 0.0 | 1.6 | 0.30 | 0.05 | 0.05 | 77 | 1006.4 |
| 20260505053847 | 17 | 81 | 0.0 | 12.9 | 0.00 | 0.00 | 0.00 | 65 | 1006.1 |
| 20260505053344 | 17 | 143 | 1.6 | 4.8 | 0.00 | 0.00 | 0.00 | 64 | 1006.1 |
| 20260505052840 | 18 | 81 | 0.0 | 11.3 | 0.00 | 0.00 | 0.00 | 62 | 1006.1 |
| 20260505052337 | 18 | 121 | 0.0 | 6.4 | 0.00 | 0.00 | 0.00 | 59 | 1006.3 |
| 20260505051834 | 18 | 66 | 1.6 | 3.2 | 0.00 | 0.00 | 0.00 | 56 | 1006.2 |
| 20260505051331 | 19 | 129 | 3.2 | 4.8 | 0.00 | 0.00 | 0.00 | 51 | 1006.2 |
| 20260505050829 | 20 | 196 | 3.2 | 11.3 | 0.00 | 0.00 | 0.00 | 48 | 1006.0 |
| 20260505050328 | 20 | 115 | 3.2 | 11.3 | 0.00 | 0.00 | 0.00 | 47 | 1005.5 |
| 20260505041758 | 20 | 145 | 0.0 | 9.7 | 0.00 | 0.00 | 0.00 | 75 | 1004.7 |
| 20260505041255 | 20 | 141 | 1.6 | 4.8 | 0.00 | 0.00 | 0.00 | 75 | 1004.8 |
| 20260505040752 | 21 | 138 | 4.8 | 6.4 | 0.00 | 0.00 | 0.00 | 74 | 1004.8 |
| 20260505040250 | 21 | 129 | 0.0 | 6.4 | 0.00 | 0.00 | 0.00 | 75 | 1004.9 |
| 20260505035746 | 21 | 135 | 0.0 | 4.8 | 0.00 | 0.00 | 0.00 | 75 | 1004.9 |
| 20260505035242 | 21 | 126 | 0.0 | 1.6 | 0.00 | 0.00 | 0.00 | 74 | 1004.9 |
| 20260505034739 | 21 | 135 | 0.0 | 4.8 | 0.00 | 0.00 | 0.00 | 74 | 1004.8 |
| 20260505034236 | 21 | 134 | 0.0 | 3.2 | 0.00 | 0.00 | 0.00 | 74 | 1004.7 |
| 20260505033733 | 21 | 115 | 0.0 | 1.6 | 0.00 | 0.00 | 0.00 | 74 | 1004.8 |
| 20260505033230 | 21 | 138 | 1.6 | 4.8 | 0.00 | 0.00 | 0.00 | 74 | 1004.8 |
| 20260505032728 | 21 | 142 | 1.6 | 4.8 | 0.00 | 0.00 | 0.00 | 73 | 1004.9 |
| 20260505032224 | 21 | 131 | 0.0 | 1.6 | 0.00 | 0.00 | 0.00 | 72 | 1004.9 |
| 20260505031721 | 21 | 149 | 3.2 | 6.4 | 0.00 | 0.00 | 0.00 | 71 | 1004.8 |
| 20260505031217 | 21 | 116 | 0.0 | 6.4 | 0.00 | 0.00 | 0.00 | 71 | 1004.6 |
| 20260505030714 | 21 | 132 | 0.0 | 3.2 | 0.00 | 0.00 | 0.00 | 70 | 1004.6 |
| 20260505030210 | 21 | 116 | 0.0 | 3.2 | 0.00 | 0.00 | 0.00 | 69 | 1004.7 |
| 20260505025707 | 21 | 128 | 1.6 | 1.6 | 0.00 | 0.00 | 0.00 | 69 | 1004.7 |
| 20260505025205 | 21 | 124 | 0.0 | 3.2 | 0.00 | 0.00 | 0.00 | 68 | 1004.6 |
| 20260505024703 | 21 | 99 | 0.0 | 0.0 | 0.00 | 0.00 | 0.00 | 68 | 1004.6 |
| 20260505024200 | 22 | 118 | 0.0 | 1.6 | 0.00 | 0.00 | 0.00 | 67 | 1004.3 |
| 20260505023657 | 21 | 118 | 0.0 | 0.0 | 0.00 | 0.00 | 0.00 | 67 | 1004.3 |
| 20260505023154 | 21 | 110 | 0.0 | 3.2 | 0.00 | 0.00 | 0.00 | 67 | 1004.2 |
| 20260505022652 | 21 | 131 | 0.0 | 1.6 | 0.00 | 0.00 | 0.00 | 68 | 1004.2 |
| 20260505022149 | 20 | 124 | 0.0 | 0.0 | 0.00 | 0.00 | 0.00 | 70 | 1004.0 |
| 20260505021645 | 20 | 124 | 0.0 | 0.0 | 0.00 | 0.00 | 0.00 | 70 | 1003.9 |
| 20260505021142 | 20 | 125 | 0.0 | 0.0 | 0.00 | 0.00 | 0.00 | 69 | 1004.0 |
| 20260505020637 | 20 | 122 | 0.0 | 0.0 | 0.00 | 0.00 | 0.00 | 70 | 1004.0 |
| 20260505020134 | 20 | 122 | 0.0 | 0.0 | 0.00 | 0.00 | 0.00 | 69 | 1003.8 |
| 20260505015631 | 20 | 122 | 0.0 | 0.0 | 0.00 | 0.00 | 0.00 | 69 | 1004.0 |
| 20260505015128 | 20 | 122 | 0.0 | 0.0 | 0.00 | 0.00 | 0.00 | 68 | 1003.9 |
| 20260505014624 | 21 | 127 | 0.0 | 0.0 | 0.00 | 0.00 | 0.00 | 67 | 1003.9 |
| 20260505014121 | 21 | 127 | 0.0 | 0.0 | 0.00 | 0.00 | 0.00 | 65 | 1003.7 |
| 20260505013619 | 21 | 123 | 0.0 | 0.0 | 0.00 | 0.00 | 0.00 | 65 | 1003.7 |
| 20260505013116 | 21 | 122 | 0.0 | 0.0 | 0.00 | 0.00 | 0.00 | 63 | 1003.6 |
| 20260505012614 | 21 | 126 | 0.0 | 0.0 | 0.00 | 0.00 | 0.00 | 63 | 1003.5 |
| 20260505012111 | 21 | 127 | 0.0 | 0.0 | 0.00 | 0.00 | 0.00 | 63 | 1003.4 |
| 20260505011606 | 22 | 126 | 0.0 | 0.0 | 0.00 | 0.00 | 0.00 | 63 | 1003.3 |
| 20260505011104 | 22 | 126 | 0.0 | 0.0 | 0.00 | 0.00 | 0.00 | 61 | 1003.1 |
| 20260505010604 | 22 | 126 | 0.0 | 0.0 | 0.00 | 0.00 | 0.00 | 60 | 1003.2 |
| 20260505005558 | 23 | 126 | 0.0 | 0.0 | 0.00 | 0.00 | 0.00 | 58 | 1003.1 |
| 20260505005055 | 23 | 126 | 0.0 | 0.0 | 0.00 | 0.00 | 0.00 | 57 | 1003.2 |
| 20260505004552 | 23 | 126 | 0.0 | 0.0 | 0.00 | 0.00 | 0.00 | 56 | 1002.9 |
| 20260505004049 | 24 | 122 | 0.0 | 0.0 | 0.00 | 0.00 | 0.00 | 55 | 1002.9 |
| 20260505003546 | 25 | 122 | 0.0 | 0.0 | 0.00 | 0.00 | 0.00 | 53 | 1002.7 |
| 20260505003043 | 25 | 124 | 0.0 | 0.0 | 0.00 | 0.00 | 0.00 | 52 | 1002.7 |
| 20260505002543 | 26 | 120 | 0.0 | 0.0 | 0.00 | 0.00 | 0.00 | 50 | 1002.9 |
| 20260505002043 | 26 | 125 | 0.0 | 0.0 | 0.00 | 0.00 | 0.00 | 49 | 1002.9 |
| 20260505001540 | 26 | 128 | 0.0 | 1.6 | 0.00 | 0.00 | 0.00 | 49 | 1002.6 |
| 20260505001037 | 26 | 130 | 0.0 | 1.6 | 0.00 | 0.00 | 0.00 | 50 | 1002.7 |
| 20260505000534 | 26 | 121 | 0.0 | 0.0 | 0.00 | 0.00 | 0.00 | 49 | 1002.7 |
| 20260505000032 | 26 | 127 | 0.0 | 0.0 | 0.00 | 0.00 | 0.00 | 50 | 1002.8 |
| 20260504235528 | 26 | 124 | 0.0 | 0.0 | 0.00 | 0.00 | 0.00 | 49 | 1002.8 |
| 20260504235025 | 26 | 117 | 0.0 | 0.0 | 0.00 | 0.00 | 0.00 | 49 | 1002.9 |
| 20260504234522 | 26 | 123 | 0.0 | 1.6 | 0.00 | 0.00 | 0.00 | 49 | 1002.5 |
| 20260504234019 | 26 | 152 | 0.0 | 0.0 | 0.00 | 0.00 | 0.00 | 48 | 1002.9 |
| 20260504233514 | 26 | 118 | 0.0 | 4.8 | 0.00 | 0.00 | 0.00 | 48 | 1002.7 |
| 20260504233012 | 26 | 124 | 0.0 | 0.0 | 0.00 | 0.00 | 0.00 | 49 | 1002.8 |
| 20260504232509 | 26 | 160 | 0.0 | 4.8 | 0.00 | 0.00 | 0.00 | 48 | 1003.0 |
| 20260504232006 | 26 | 116 | 0.0 | 0.0 | 0.00 | 0.00 | 0.00 | 47 | 1003.0 |
| 20260504231503 | 27 | 168 | 0.0 | 0.0 | 0.00 | 0.00 | 0.00 | 47 | 1003.1 |
| 20260504230959 | 27 | 213 | 1.6 | 4.8 | 0.00 | 0.00 | 0.00 | 45 | 1002.9 |
| 20260504230455 | 28 | 209 | 0.0 | 6.4 | 0.00 | 0.00 | 0.00 | 44 | 1002.9 |
| 20260504225954 | 27 | 124 | 3.2 | 3.2 | 0.00 | 0.00 | 0.00 | 45 | 1002.7 |
| 20260504225451 | 27 | 98 | 0.0 | 6.4 | 0.00 | 0.00 | 0.00 | 46 | 1003.0 |
| 20260504224948 | 27 | 206 | 6.4 | 11.3 | 0.00 | 0.00 | 0.00 | 43 | 1003.1 |
| 20260504224444 | 27 | 150 | 3.2 | 6.4 | 0.00 | 0.00 | 0.00 | 45 | 1002.9 |
| 20260504223941 | 27 | 208 | 6.4 | 6.4 | 0.00 | 0.00 | 0.00 | 44 | 1002.9 |
| 20260504223437 | 27 | 99 | 0.0 | 9.7 | 0.00 | 0.00 | 0.00 | 45 | 1002.9 |
| 20260504222933 | 27 | 51 | 3.2 | 4.8 | 0.00 | 0.00 | 0.00 | 44 | 1003.0 |
| 20260504222431 | 28 | 163 | 0.0 | 6.4 | 0.00 | 0.00 | 0.00 | 43 | 1002.8 |
| 20260504221929 | 28 | 206 | 0.0 | 9.7 | 0.00 | 0.00 | 0.00 | 44 | 1002.9 |
| 20260504221425 | 28 | 198 | 1.6 | 9.7 | 0.00 | 0.00 | 0.00 | 44 | 1003.0 |
| 20260504220922 | 27 | 324 | 9.7 | 14.5 | 0.00 | 0.00 | 0.00 | 42 | 1003.1 |
| 20260504220419 | 27 | 156 | 4.8 | 9.7 | 0.00 | 0.00 | 0.00 | 46 | 1003.1 |
| 20260504215916 | 27 | 158 | 3.2 | 4.8 | 0.00 | 0.00 | 0.00 | 45 | 1003.1 |
| 20260504215413 | 27 | 118 | 0.0 | 3.2 | 0.00 | 0.00 | 0.00 | 49 | 1003.1 |
| 20260504214909 | 27 | 195 | 3.2 | 6.4 | 0.00 | 0.00 | 0.00 | 45 | 1003.2 |
| 20260504214406 | 27 | 111 | 1.6 | 6.4 | 0.00 | 0.00 | 0.00 | 48 | 1003.4 |
| 20260504213902 | 27 | 99 | 8.0 | 20.9 | 0.00 | 0.00 | 0.00 | 45 | 1003.5 |
| 20260504213358 | 27 | 129 | 0.0 | 1.6 | 0.00 | 0.00 | 0.00 | 45 | 1003.5 |
| 20260504212856 | 27 | 120 | 0.0 | 3.2 | 0.00 | 0.00 | 0.00 | 45 | 1003.5 |
| 20260504212351 | 27 | 115 | 0.0 | 11.3 | 0.00 | 0.00 | 0.00 | 44 | 1003.5 |
| 20260504211850 | 27 | 174 | 3.2 | 11.3 | 0.00 | 0.00 | 0.00 | 45 | 1003.4 |
| 20260504211345 | 27 | 120 | 1.6 | 9.7 | 0.00 | 0.00 | 0.00 | 44 | 1003.3 |
| 20260504210843 | 26 | 162 | 3.2 | 4.8 | 0.00 | 0.00 | 0.00 | 49 | 1003.5 |
| 20260504210340 | 26 | 242 | 9.7 | 11.3 | 0.00 | 0.00 | 0.00 | 46 | 1003.5 |
| 20260504205837 | 26 | 208 | 3.2 | 9.7 | 0.00 | 0.00 | 0.00 | 46 | 1003.6 |
| 20260504205335 | 26 | 78 | 1.6 | 6.4 | 0.00 | 0.00 | 0.00 | 47 | 1003.6 |
| 20260504204833 | 26 | 159 | 9.7 | 12.9 | 0.00 | 0.00 | 0.00 | 46 | 1003.7 |
| 20260504204331 | 26 | 130 | 4.8 | 12.9 | 0.00 | 0.00 | 0.00 | 47 | 1003.7 |
| 20260504203830 | 27 | 286 | 0.0 | 9.7 | 0.00 | 0.00 | 0.00 | 48 | 1003.8 |
| 20260504203327 | 27 | 202 | 6.4 | 14.5 | 0.00 | 0.00 | 0.00 | 48 | 1003.8 |
| 20260504202822 | 27 | 63 | 3.2 | 6.4 | 0.00 | 0.00 | 0.00 | 44 | 1003.8 |
| 20260504202320 | 27 | 111 | 0.0 | 11.3 | 0.00 | 0.00 | 0.00 | 48 | 1003.8 |
| 20260504201816 | 27 | 190 | 3.2 | 9.7 | 0.00 | 0.00 | 0.00 | 45 | 1004.0 |
| 20260504201314 | 28 | 252 | 3.2 | 11.3 | 0.00 | 0.00 | 0.00 | 46 | 1003.9 |
| 20260504200811 | 27 | 116 | 3.2 | 11.3 | 0.00 | 0.00 | 0.00 | 47 | 1003.7 |
| 20260504200307 | 27 | 210 | 4.8 | 9.7 | 0.00 | 0.00 | 0.00 | 45 | 1003.8 |
| 20260504195803 | 28 | 190 | 4.8 | 12.9 | 0.00 | 0.00 | 0.00 | 43 | 1003.9 |
| 20260504195259 | 27 | 154 | 4.8 | 6.4 | 0.00 | 0.00 | 0.00 | 46 | 1003.8 |
| 20260504194756 | 27 | 195 | 8.0 | 12.9 | 0.00 | 0.00 | 0.00 | 45 | 1003.9 |
| 20260504194253 | 27 | 169 | 4.8 | 9.7 | 0.00 | 0.00 | 0.00 | 49 | 1003.8 |
| 20260504193749 | 27 | 219 | 3.2 | 11.3 | 0.00 | 0.00 | 0.00 | 47 | 1003.8 |
| 20260504193246 | 27 | 221 | 3.2 | 14.5 | 0.00 | 0.00 | 0.00 | 49 | 1003.9 |
| 20260504192745 | 27 | 171 | 3.2 | 9.7 | 0.00 | 0.00 | 0.00 | 49 | 1003.8 |
| 20260504192243 | 27 | 134 | 3.2 | 9.7 | 0.00 | 0.00 | 0.00 | 53 | 1003.8 |
| 20260504191741 | 27 | 157 | 6.4 | 16.1 | 0.00 | 0.00 | 0.00 | 49 | 1003.9 |
| 20260504191238 | 27 | 207 | 8.0 | 12.9 | 0.00 | 0.00 | 0.00 | 48 | 1003.9 |
| 20260504190733 | 27 | 69 | 4.8 | 6.4 | 0.00 | 0.00 | 0.00 | 50 | 1003.9 |
| 20260504190230 | 27 | 139 | 3.2 | 11.3 | 0.00 | 0.00 | 0.00 | 55 | 1003.9 |
| 20260504185726 | 27 | 117 | 1.6 | 14.5 | 0.00 | 0.00 | 0.00 | 49 | 1004.4 |
| 20260504185223 | 27 | 245 | 4.8 | 17.7 | 0.00 | 0.00 | 0.00 | 47 | 1004.2 |
| 20260504184719 | 27 | 304 | 6.4 | 11.3 | 0.00 | 0.00 | 0.00 | 47 | 1004.2 |
| 20260504184215 | 26 | 212 | 3.2 | 11.3 | 0.00 | 0.00 | 0.00 | 45 | 1004.1 |
| 20260504183711 | 26 | 117 | 0.0 | 9.7 | 0.00 | 0.00 | 0.00 | 50 | 1004.2 |
| 20260504183208 | 26 | 262 | 9.7 | 12.9 | 0.00 | 0.00 | 0.00 | 48 | 1004.2 |
| 20260504182706 | 26 | 219 | 1.6 | 11.3 | 0.00 | 0.00 | 0.00 | 46 | 1004.4 |
| 20260504182203 | 26 | 95 | 1.6 | 12.9 | 0.00 | 0.00 | 0.00 | 48 | 1004.4 |
| 20260504181701 | 26 | 300 | 6.4 | 9.7 | 0.00 | 0.00 | 0.00 | 45 | 1004.5 |
| 20260504181158 | 26 | 176 | 4.8 | 12.9 | 0.00 | 0.00 | 0.00 | 51 | 1004.4 |
| 20260504180657 | 26 | 90 | 6.4 | 9.7 | 0.00 | 0.00 | 0.00 | 47 | 1004.3 |
| 20260504180155 | 25 | 327 | 6.4 | 11.3 | 0.00 | 0.00 | 0.00 | 47 | 1004.5 |
| 20260504175652 | 26 | 183 | 3.2 | 6.4 | 0.00 | 0.00 | 0.00 | 47 | 1004.6 |
| 20260504175149 | 26 | 209 | 0.0 | 6.4 | 0.00 | 0.00 | 0.00 | 51 | 1004.8 |
| 20260504174647 | 25 | 153 | 1.6 | 9.7 | 0.00 | 0.00 | 0.00 | 48 | 1004.8 |
| 20260504174143 | 25 | 105 | 3.2 | 6.4 | 0.00 | 0.00 | 0.00 | 51 | 1004.7 |
| 20260504173641 | 25 | 163 | 3.2 | 11.3 | 0.00 | 0.00 | 0.00 | 48 | 1004.7 |
| 20260504173138 | 25 | 275 | 4.8 | 11.3 | 0.00 | 0.00 | 0.00 | 49 | 1004.7 |
| 20260504172634 | 25 | 290 | 3.2 | 11.3 | 0.00 | 0.00 | 0.00 | 50 | 1004.7 |
| 20260504172131 | 24 | 199 | 6.4 | 12.9 | 0.00 | 0.00 | 0.00 | 48 | 1004.9 |
| 20260504171627 | 25 | 169 | 3.2 | 14.5 | 0.00 | 0.00 | 0.00 | 52 | 1005.0 |
| 20260504171125 | 25 | 126 | 4.8 | 9.7 | 0.00 | 0.00 | 0.00 | 50 | 1004.9 |
| 20260504170621 | 25 | 238 | 4.8 | 6.4 | 0.00 | 0.00 | 0.00 | 48 | 1005.2 |
| 20260504170119 | 25 | 339 | 8.0 | 14.5 | 0.00 | 0.00 | 0.00 | 46 | 1004.9 |
| 20260504151004 | 22 | 201 | 6.4 | 16.1 | 0.00 | 0.00 | 0.00 | 51 | 1005.0 |
| 20260504150501 | 22 | 165 | 4.8 | 16.1 | 0.00 | 0.00 | 0.00 | 52 | 1005.2 |
| 20260504140927 | 20 | 129 | 0.0 | 6.4 | 0.00 | 0.00 | 0.00 | 60 | 1005.5 |
| 20260504140424 | 18 | 122 | 1.6 | 6.4 | 0.00 | 0.00 | 0.00 | 59 | 1005.2 |
| 20260504130349 | 19 | 175 | 3.2 | 4.8 | 0.00 | 0.00 | 0.00 | 56 | 1005.0 |
| 20260504120312 | 16 | 111 | 1.6 | 6.4 | 0.00 | 0.00 | 0.00 | 62 | 1004.9 |
| 20260504110236 | 17 | 172 | 4.8 | 9.7 | 0.00 | 0.00 | 0.00 | 57 | 1005.6 |
| 20260504100159 | 18 | 119 | 1.6 | 3.2 | 0.00 | 0.00 | 0.00 | 54 | 1005.6 |